Year,Month,Day,Hour,Minute,Value (Times are PST for temperature in C)
2009,08,05,00,00,16.20
2009,08,05,00,01,16.30
2009,08,05,00,02,16.30
2009,08,05,00,03,16.30
2009,08,05,00,04,16.30
2009,08,05,00,05,16.30
2009,08,05,00,06,16.30
2009,08,05,00,07,16.30
2009,08,05,00,08,16.30
2009,08,05,00,09,16.30
2009,08,05,00,10,16.30
2009,08,05,00,11,16.20
2009,08,05,00,12,16.20
2009,08,05,00,13,16.20
2009,08,05,00,14,16.20
2009,08,05,00,15,16.20
2009,08,05,00,16,16.20
2009,08,05,00,17,16.20
2009,08,05,00,18,16.20
2009,08,05,00,19,16.10
2009,08,05,00,20,16.10
2009,08,05,00,21,16.10
2009,08,05,00,22,16.10
2009,08,05,00,23,16.10
2009,08,05,00,24,16.00
2009,08,05,00,25,16.00
2009,08,05,00,26,15.90
2009,08,05,00,27,15.90
2009,08,05,00,28,15.90
2009,08,05,00,29,15.90
2009,08,05,00,30,15.90
2009,08,05,00,31,15.80
2009,08,05,00,32,15.80
2009,08,05,00,33,15.80
2009,08,05,00,34,15.80
2009,08,05,00,35,15.80
2009,08,05,00,36,15.80
2009,08,05,00,37,15.70
2009,08,05,00,38,15.70
2009,08,05,00,39,15.70
2009,08,05,00,40,15.60
2009,08,05,00,41,15.60
2009,08,05,00,42,15.60
2009,08,05,00,43,15.50
2009,08,05,00,44,15.50
2009,08,05,00,45,15.50
2009,08,05,00,46,15.40
2009,08,05,00,47,15.40
2009,08,05,00,48,15.40
2009,08,05,00,49,15.40
2009,08,05,00,50,15.40
2009,08,05,00,51,15.40
2009,08,05,00,52,15.40
2009,08,05,00,53,15.40
2009,08,05,00,54,15.40
2009,08,05,00,55,15.50
2009,08,05,00,56,15.50
2009,08,05,00,57,15.50
2009,08,05,00,58,15.50
2009,08,05,00,59,15.50
2009,08,05,01,00,15.50
2009,08,05,01,01,15.50
2009,08,05,01,02,15.50
2009,08,05,01,03,15.50
2009,08,05,01,04,15.50
2009,08,05,01,05,15.50
2009,08,05,01,06,15.50
2009,08,05,01,07,15.60
2009,08,05,01,08,15.60
2009,08,05,01,09,15.60
2009,08,05,01,10,15.60
2009,08,05,01,11,15.70
2009,08,05,01,12,15.70
2009,08,05,01,13,15.70
2009,08,05,01,14,15.70
2009,08,05,01,15,15.70
2009,08,05,01,16,15.70
2009,08,05,01,17,15.80
2009,08,05,01,18,15.80
2009,08,05,01,19,15.80
2009,08,05,01,20,15.80
2009,08,05,01,21,15.80
2009,08,05,01,22,15.80
2009,08,05,01,23,15.80
2009,08,05,01,24,15.80
2009,08,05,01,25,15.80
2009,08,05,01,26,15.80
2009,08,05,01,27,15.80
2009,08,05,01,28,15.70
2009,08,05,01,29,15.70
2009,08,05,01,30,15.70
2009,08,05,01,31,15.70
2009,08,05,01,32,15.70
2009,08,05,01,33,15.70
2009,08,05,01,34,15.70
2009,08,05,01,35,15.60
2009,08,05,01,36,15.60
2009,08,05,01,37,15.60
2009,08,05,01,38,15.70
2009,08,05,01,39,15.70
2009,08,05,01,40,15.70
2009,08,05,01,41,15.70
2009,08,05,01,42,15.80
2009,08,05,01,43,15.80
2009,08,05,01,44,15.80
2009,08,05,01,45,15.80
2009,08,05,01,46,15.80
2009,08,05,01,47,15.80
2009,08,05,01,48,15.80
2009,08,05,01,49,15.80
2009,08,05,01,50,15.80
2009,08,05,01,51,15.80
2009,08,05,01,52,15.80
2009,08,05,01,53,15.80
2009,08,05,01,54,15.70
2009,08,05,01,55,15.70
2009,08,05,01,56,15.70
2009,08,05,01,57,15.70
2009,08,05,01,58,15.60
2009,08,05,01,59,15.60
2009,08,05,02,00,15.60
2009,08,05,02,01,15.60
2009,08,05,02,02,15.60
2009,08,05,02,03,15.60
2009,08,05,02,04,15.60
2009,08,05,02,05,15.50
2009,08,05,02,06,15.50
2009,08,05,02,07,15.50
2009,08,05,02,08,15.50
2009,08,05,02,09,15.50
2009,08,05,02,10,15.50
2009,08,05,02,11,15.50
2009,08,05,02,12,15.50
2009,08,05,02,13,15.50
2009,08,05,02,14,15.50
2009,08,05,02,15,15.50
2009,08,05,02,16,15.50
2009,08,05,02,17,15.50
2009,08,05,02,18,15.50
2009,08,05,02,19,15.50
2009,08,05,02,20,15.50
2009,08,05,02,21,15.50
2009,08,05,02,22,15.40
2009,08,05,02,23,15.40
2009,08,05,02,24,15.40
2009,08,05,02,25,15.40
2009,08,05,02,26,15.40
2009,08,05,02,27,15.40
2009,08,05,02,28,15.40
2009,08,05,02,29,15.40
2009,08,05,02,30,15.40
2009,08,05,02,31,15.40
2009,08,05,02,32,15.40
2009,08,05,02,33,15.30
2009,08,05,02,34,15.30
2009,08,05,02,35,15.30
2009,08,05,02,36,15.30
2009,08,05,02,37,15.30
2009,08,05,02,38,15.30
2009,08,05,02,39,15.30
2009,08,05,02,40,15.30
2009,08,05,02,41,15.30
2009,08,05,02,42,15.30
2009,08,05,02,43,15.30
2009,08,05,02,44,15.20
2009,08,05,02,45,15.20
2009,08,05,02,46,15.20
2009,08,05,02,47,15.20
2009,08,05,02,48,15.20
2009,08,05,02,49,15.20
2009,08,05,02,50,15.20
2009,08,05,02,51,15.20
2009,08,05,02,52,15.20
2009,08,05,02,53,15.20
2009,08,05,02,54,15.20
2009,08,05,02,55,15.20
2009,08,05,02,56,15.20
2009,08,05,02,57,15.20
2009,08,05,02,58,15.10
2009,08,05,02,59,15.10
2009,08,05,03,00,15.10
2009,08,05,03,01,15.00
2009,08,05,03,02,15.00
2009,08,05,03,03,15.00
2009,08,05,03,04,15.00
2009,08,05,03,05,15.00
2009,08,05,03,06,15.00
2009,08,05,03,07,15.00
2009,08,05,03,08,15.00
2009,08,05,03,09,15.00
2009,08,05,03,10,15.00
2009,08,05,03,11,15.00
2009,08,05,03,12,15.00
2009,08,05,03,13,15.00
2009,08,05,03,14,15.00
2009,08,05,03,15,15.00
2009,08,05,03,16,14.90
2009,08,05,03,17,14.90
2009,08,05,03,18,14.80
2009,08,05,03,19,14.80
2009,08,05,03,20,14.80
2009,08,05,03,21,14.80
2009,08,05,03,22,14.80
2009,08,05,03,23,14.80
2009,08,05,03,24,14.80
2009,08,05,03,25,14.80
2009,08,05,03,26,14.80
2009,08,05,03,27,14.80
2009,08,05,03,28,14.80
2009,08,05,03,29,14.70
2009,08,05,03,30,14.70
2009,08,05,03,31,14.70
2009,08,05,03,32,14.60
2009,08,05,03,33,14.60
2009,08,05,03,34,14.60
2009,08,05,03,35,14.60
2009,08,05,03,36,14.50
2009,08,05,03,37,14.40
2009,08,05,03,38,14.40
2009,08,05,03,39,14.40
2009,08,05,03,40,14.30
2009,08,05,03,41,14.30
2009,08,05,03,42,14.30
2009,08,05,03,43,14.30
2009,08,05,03,44,14.30
2009,08,05,03,45,14.30
2009,08,05,03,46,14.30
2009,08,05,03,47,14.30
2009,08,05,03,48,14.30
2009,08,05,03,49,14.30
2009,08,05,03,50,14.30
2009,08,05,03,51,14.30
2009,08,05,03,52,14.30
2009,08,05,03,53,14.30
2009,08,05,03,54,14.40
2009,08,05,03,55,14.40
2009,08,05,03,56,14.40
2009,08,05,03,57,14.40
2009,08,05,03,58,14.40
2009,08,05,03,59,14.40
2009,08,05,04,00,14.40
2009,08,05,04,01,14.40
2009,08,05,04,02,14.40
2009,08,05,04,03,14.30
2009,08,05,04,04,14.30
2009,08,05,04,05,14.30
2009,08,05,04,06,14.30
2009,08,05,04,07,14.30
2009,08,05,04,08,14.30
2009,08,05,04,09,14.30
2009,08,05,04,10,14.30
2009,08,05,04,11,14.30
2009,08,05,04,12,14.20
2009,08,05,04,13,14.20
2009,08,05,04,14,14.20
2009,08,05,04,15,14.20
2009,08,05,04,16,14.20
2009,08,05,04,17,14.20
2009,08,05,04,18,14.20
2009,08,05,04,19,14.20
2009,08,05,04,20,14.20
2009,08,05,04,21,14.20
2009,08,05,04,22,14.20
2009,08,05,04,23,14.20
2009,08,05,04,24,14.20
2009,08,05,04,25,14.20
2009,08,05,04,26,14.20
2009,08,05,04,27,14.20
2009,08,05,04,28,14.20
2009,08,05,04,29,14.20
2009,08,05,04,30,14.20
2009,08,05,04,31,14.20
2009,08,05,04,32,14.10
2009,08,05,04,33,14.10
2009,08,05,04,34,14.10
2009,08,05,04,35,14.10
2009,08,05,04,36,14.10
2009,08,05,04,37,14.00
2009,08,05,04,38,14.10
2009,08,05,04,39,14.10
2009,08,05,04,40,14.10
2009,08,05,04,41,14.10
2009,08,05,04,42,14.00
2009,08,05,04,43,14.00
2009,08,05,04,44,14.00
2009,08,05,04,45,14.00
2009,08,05,04,46,14.00
2009,08,05,04,47,14.00
2009,08,05,04,48,14.00
2009,08,05,04,49,14.00
2009,08,05,04,50,14.00
2009,08,05,04,51,14.00
2009,08,05,04,52,14.00
2009,08,05,04,53,14.00
2009,08,05,04,54,14.00
2009,08,05,04,55,14.10
2009,08,05,04,56,14.00
2009,08,05,04,57,14.00
2009,08,05,04,58,14.00
2009,08,05,04,59,14.00
2009,08,05,05,00,13.90
2009,08,05,05,01,13.90
2009,08,05,05,02,13.90
2009,08,05,05,03,13.90
2009,08,05,05,04,13.90
2009,08,05,05,05,13.90
2009,08,05,05,06,13.90
2009,08,05,05,07,13.90
2009,08,05,05,08,13.90
2009,08,05,05,09,13.90
2009,08,05,05,10,13.90
2009,08,05,05,11,13.90
2009,08,05,05,12,13.90
2009,08,05,05,13,13.90
2009,08,05,05,14,13.90
2009,08,05,05,15,13.90
2009,08,05,05,16,13.90
2009,08,05,05,17,14.00
2009,08,05,05,18,14.00
2009,08,05,05,19,14.00
2009,08,05,05,20,14.00
2009,08,05,05,21,13.90
2009,08,05,05,22,13.90
2009,08,05,05,23,13.90
2009,08,05,05,24,13.90
2009,08,05,05,25,13.90
2009,08,05,05,26,13.90
2009,08,05,05,27,13.90
2009,08,05,05,28,13.90
2009,08,05,05,29,13.90
2009,08,05,05,30,13.90
2009,08,05,05,31,13.90
2009,08,05,05,32,13.90
2009,08,05,05,33,13.90
2009,08,05,05,34,13.90
2009,08,05,05,35,13.90
2009,08,05,05,36,13.80
2009,08,05,05,37,13.80
2009,08,05,05,38,13.80
2009,08,05,05,39,13.80
2009,08,05,05,40,13.80
2009,08,05,05,41,13.80
2009,08,05,05,42,13.80
2009,08,05,05,43,13.80
2009,08,05,05,44,13.80
2009,08,05,05,45,13.80
2009,08,05,05,46,13.80
2009,08,05,05,47,13.80
2009,08,05,05,48,13.80
2009,08,05,05,49,13.70
2009,08,05,05,50,13.70
2009,08,05,05,51,13.70
2009,08,05,05,52,13.70
2009,08,05,05,53,13.70
2009,08,05,05,54,13.70
2009,08,05,05,55,13.70
2009,08,05,05,56,13.70
2009,08,05,05,57,13.60
2009,08,05,05,58,13.60
2009,08,05,05,59,13.60
2009,08,05,06,00,13.60
2009,08,05,06,01,13.60
2009,08,05,06,02,13.60
2009,08,05,06,03,13.60
2009,08,05,06,04,13.60
2009,08,05,06,05,13.60
2009,08,05,06,06,13.60
2009,08,05,06,07,13.70
2009,08,05,06,08,13.70
2009,08,05,06,09,13.70
2009,08,05,06,10,13.70
2009,08,05,06,11,13.70
2009,08,05,06,12,13.70
2009,08,05,06,13,13.70
2009,08,05,06,14,13.70
2009,08,05,06,15,13.70
2009,08,05,06,16,13.70
2009,08,05,06,17,13.70
2009,08,05,06,18,13.70
2009,08,05,06,19,13.70
2009,08,05,06,20,13.80
2009,08,05,06,21,13.80
2009,08,05,06,22,13.80
2009,08,05,06,23,13.80
2009,08,05,06,24,13.90
2009,08,05,06,25,13.90
2009,08,05,06,26,13.90
2009,08,05,06,27,13.90
2009,08,05,06,28,14.00
2009,08,05,06,29,14.00
2009,08,05,06,30,14.00
2009,08,05,06,31,14.00
2009,08,05,06,32,14.00
2009,08,05,06,33,14.10
2009,08,05,06,34,14.10
2009,08,05,06,35,14.10
2009,08,05,06,36,14.20
2009,08,05,06,37,14.20
2009,08,05,06,38,14.20
2009,08,05,06,39,14.20
2009,08,05,06,40,14.30
2009,08,05,06,41,14.30
2009,08,05,06,42,14.30
2009,08,05,06,43,14.30
2009,08,05,06,44,14.40
2009,08,05,06,45,14.40
2009,08,05,06,46,14.40
2009,08,05,06,47,14.50
2009,08,05,06,48,14.50
2009,08,05,06,49,14.50
2009,08,05,06,50,14.60
2009,08,05,06,51,14.60
2009,08,05,06,52,14.60
2009,08,05,06,53,14.70
2009,08,05,06,54,14.70
2009,08,05,06,55,14.70
2009,08,05,06,56,14.70
2009,08,05,06,57,14.70
2009,08,05,06,58,14.70
2009,08,05,06,59,14.70
2009,08,05,07,00,14.70
2009,08,05,07,01,14.70
2009,08,05,07,02,14.70
2009,08,05,07,03,14.70
2009,08,05,07,04,14.70
2009,08,05,07,05,14.70
2009,08,05,07,06,14.70
2009,08,05,07,07,14.70
2009,08,05,07,08,14.70
2009,08,05,07,09,14.70
2009,08,05,07,10,14.70
2009,08,05,07,11,14.70
2009,08,05,07,12,14.70
2009,08,05,07,13,14.70
2009,08,05,07,14,14.80
2009,08,05,07,15,14.80
2009,08,05,07,16,14.80
2009,08,05,07,17,14.80
2009,08,05,07,18,14.80
2009,08,05,07,19,14.90
2009,08,05,07,20,14.90
2009,08,05,07,21,15.00
2009,08,05,07,22,15.00
2009,08,05,07,23,15.00
2009,08,05,07,24,15.00
2009,08,05,07,25,15.00
2009,08,05,07,26,15.00
2009,08,05,07,27,15.00
2009,08,05,07,28,15.00
2009,08,05,07,29,15.10
2009,08,05,07,30,15.00
2009,08,05,07,31,15.00
2009,08,05,07,32,15.00
2009,08,05,07,33,15.00
2009,08,05,07,34,14.80
2009,08,05,07,35,14.70
2009,08,05,07,36,14.70
2009,08,05,07,37,14.70
2009,08,05,07,38,14.60
2009,08,05,07,39,14.60
2009,08,05,07,40,14.60
2009,08,05,07,41,14.60
2009,08,05,07,42,14.60
2009,08,05,07,43,14.60
2009,08,05,07,44,14.60
2009,08,05,07,45,14.60
2009,08,05,07,46,14.60
2009,08,05,07,47,14.60
2009,08,05,07,48,14.60
2009,08,05,07,49,14.70
2009,08,05,07,50,14.70
2009,08,05,07,51,14.70
2009,08,05,07,52,14.80
2009,08,05,07,53,14.80
2009,08,05,07,54,14.90
2009,08,05,07,55,14.90
2009,08,05,07,56,15.00
2009,08,05,07,57,15.00
2009,08,05,07,58,15.00
2009,08,05,07,59,15.00
2009,08,05,08,00,15.00
2009,08,05,08,01,15.00
2009,08,05,08,02,15.00
2009,08,05,08,03,15.00
2009,08,05,08,04,15.00
2009,08,05,08,05,15.00
2009,08,05,08,06,15.00
2009,08,05,08,07,15.00
2009,08,05,08,08,15.00
2009,08,05,08,09,15.00
2009,08,05,08,10,15.10
2009,08,05,08,11,15.00
2009,08,05,08,12,15.00
2009,08,05,08,13,15.00
2009,08,05,08,14,15.00
2009,08,05,08,15,15.00
2009,08,05,08,16,15.00
2009,08,05,08,17,15.00
2009,08,05,08,18,15.10
2009,08,05,08,19,15.20
2009,08,05,08,20,15.30
2009,08,05,08,21,15.30
2009,08,05,08,22,15.40
2009,08,05,08,23,15.40
2009,08,05,08,24,15.40
2009,08,05,08,25,15.40
2009,08,05,08,26,15.40
2009,08,05,08,27,15.40
2009,08,05,08,28,15.50
2009,08,05,08,29,15.50
2009,08,05,08,30,15.50
2009,08,05,08,31,15.60
2009,08,05,08,32,15.60
2009,08,05,08,33,15.60
2009,08,05,08,34,15.60
2009,08,05,08,35,15.60
2009,08,05,08,36,15.60
2009,08,05,08,37,15.60
2009,08,05,08,38,15.60
2009,08,05,08,39,15.60
2009,08,05,08,40,15.50
2009,08,05,08,41,15.40
2009,08,05,08,42,15.30
2009,08,05,08,43,15.20
2009,08,05,08,44,15.10
2009,08,05,08,45,15.00
2009,08,05,08,46,15.00
2009,08,05,08,47,15.10
2009,08,05,08,48,15.20
2009,08,05,08,49,15.20
2009,08,05,08,50,15.30
2009,08,05,08,51,15.30
2009,08,05,08,52,15.40
2009,08,05,08,53,15.40
2009,08,05,08,54,15.50
2009,08,05,08,55,15.60
2009,08,05,08,56,15.70
2009,08,05,08,57,15.80
2009,08,05,08,58,15.80
2009,08,05,08,59,15.80
2009,08,05,09,00,15.90
2009,08,05,09,01,16.00
2009,08,05,09,02,16.10
2009,08,05,09,03,16.10
2009,08,05,09,04,16.00
2009,08,05,09,05,16.00
2009,08,05,09,06,15.90
2009,08,05,09,07,15.90
2009,08,05,09,08,15.80
2009,08,05,09,09,15.80
2009,08,05,09,10,15.80
2009,08,05,09,11,15.80
2009,08,05,09,12,15.90
2009,08,05,09,13,15.90
2009,08,05,09,14,15.90
2009,08,05,09,15,15.90
2009,08,05,09,16,15.80
2009,08,05,09,17,15.80
2009,08,05,09,18,15.80
2009,08,05,09,19,15.80
2009,08,05,09,20,15.90
2009,08,05,09,21,15.90
2009,08,05,09,22,15.90
2009,08,05,09,23,15.90
2009,08,05,09,24,16.00
2009,08,05,09,25,16.10
2009,08,05,09,26,16.10
2009,08,05,09,27,16.00
2009,08,05,09,28,16.00
2009,08,05,09,29,16.00
2009,08,05,09,30,16.00
2009,08,05,09,31,16.00
2009,08,05,09,32,16.00
2009,08,05,09,33,16.10
2009,08,05,09,34,16.10
2009,08,05,09,35,16.10
2009,08,05,09,36,16.10
2009,08,05,09,37,16.00
2009,08,05,09,38,16.00
2009,08,05,09,39,16.00
2009,08,05,09,40,16.00
2009,08,05,09,41,16.10
2009,08,05,09,42,16.10
2009,08,05,09,43,16.10
2009,08,05,09,44,16.00
2009,08,05,09,45,16.00
2009,08,05,09,46,16.00
2009,08,05,09,47,16.00
2009,08,05,09,48,15.90
2009,08,05,09,49,15.90
2009,08,05,09,50,15.90
2009,08,05,09,51,16.00
2009,08,05,09,52,16.00
2009,08,05,09,53,15.90
2009,08,05,09,54,15.90
2009,08,05,09,55,16.00
2009,08,05,09,56,16.00
2009,08,05,09,57,16.00
2009,08,05,09,58,16.00
2009,08,05,09,59,16.00
2009,08,05,10,00,16.00
2009,08,05,10,01,16.10
2009,08,05,10,02,16.00
2009,08,05,10,03,16.00
2009,08,05,10,04,16.00
2009,08,05,10,05,16.10
2009,08,05,10,06,16.10
2009,08,05,10,07,16.20
2009,08,05,10,08,16.20
2009,08,05,10,09,16.20
2009,08,05,10,10,16.20
2009,08,05,10,11,16.20
2009,08,05,10,12,16.20
2009,08,05,10,13,16.20
2009,08,05,10,14,16.30
2009,08,05,10,15,16.30
2009,08,05,10,16,16.40
2009,08,05,10,17,16.50
2009,08,05,10,18,16.50
2009,08,05,10,19,16.60
2009,08,05,10,20,16.70
2009,08,05,10,21,16.70
2009,08,05,10,22,16.80
2009,08,05,10,23,16.90
2009,08,05,10,24,17.00
2009,08,05,10,25,17.00
2009,08,05,10,26,17.10
2009,08,05,10,27,17.20
2009,08,05,10,28,17.30
2009,08,05,10,29,17.30
2009,08,05,10,30,17.40
2009,08,05,10,31,17.40
2009,08,05,10,32,17.40
2009,08,05,10,33,17.30
2009,08,05,10,34,17.30
2009,08,05,10,35,17.30
2009,08,05,10,36,17.10
2009,08,05,10,37,17.00
2009,08,05,10,38,16.90
2009,08,05,10,39,17.00
2009,08,05,10,40,17.10
2009,08,05,10,41,17.20
2009,08,05,10,42,17.30
2009,08,05,10,43,17.50
2009,08,05,10,44,17.60
2009,08,05,10,45,17.70
2009,08,05,10,46,17.60
2009,08,05,10,47,17.50
2009,08,05,10,48,17.50
2009,08,05,10,49,17.50
2009,08,05,10,50,17.40
2009,08,05,10,51,17.50
2009,08,05,10,52,17.60
2009,08,05,10,53,17.70
2009,08,05,10,54,17.80
2009,08,05,10,55,17.80
2009,08,05,10,56,17.80
2009,08,05,10,57,17.80
2009,08,05,10,58,17.90
2009,08,05,10,59,17.90
2009,08,05,11,00,17.90
2009,08,05,11,01,17.90
2009,08,05,11,02,17.70
2009,08,05,11,03,17.70
2009,08,05,11,04,17.70
2009,08,05,11,05,17.60
2009,08,05,11,06,17.50
2009,08,05,11,07,17.40
2009,08,05,11,08,17.40
2009,08,05,11,09,17.40
2009,08,05,11,10,17.40
2009,08,05,11,11,17.50
2009,08,05,11,12,17.60
2009,08,05,11,13,17.60
2009,08,05,11,14,17.60
2009,08,05,11,15,17.60
2009,08,05,11,16,17.80
2009,08,05,11,17,17.80
2009,08,05,11,18,17.80
2009,08,05,11,19,17.90
2009,08,05,11,20,17.90
2009,08,05,11,21,18.00
2009,08,05,11,22,18.00
2009,08,05,11,23,18.10
2009,08,05,11,24,18.10
2009,08,05,11,25,18.10
2009,08,05,11,26,18.20
2009,08,05,11,27,18.30
2009,08,05,11,28,18.40
2009,08,05,11,29,18.50
2009,08,05,11,30,18.50
2009,08,05,11,31,18.40
2009,08,05,11,32,18.30
2009,08,05,11,33,18.30
2009,08,05,11,34,18.20
2009,08,05,11,35,18.00
2009,08,05,11,36,18.00
2009,08,05,11,37,18.00
2009,08,05,11,38,18.00
2009,08,05,11,39,18.00
2009,08,05,11,40,18.00
2009,08,05,11,41,18.00
2009,08,05,11,42,18.10
2009,08,05,11,43,18.20
2009,08,05,11,44,18.30
2009,08,05,11,45,18.40
2009,08,05,11,46,18.50
2009,08,05,11,47,18.50
2009,08,05,11,48,18.40
2009,08,05,11,49,18.40
2009,08,05,11,50,18.40
2009,08,05,11,51,18.30
2009,08,05,11,52,18.20
2009,08,05,11,53,18.20
2009,08,05,11,54,18.20
2009,08,05,11,55,18.30
2009,08,05,11,56,18.30
2009,08,05,11,57,18.20
2009,08,05,11,58,18.10
2009,08,05,11,59,18.20
2009,08,05,12,00,18.20
2009,08,05,12,01,18.40
2009,08,05,12,02,18.50
2009,08,05,12,03,18.50
2009,08,05,12,04,18.50
2009,08,05,12,05,18.50
2009,08,05,12,06,18.50
2009,08,05,12,07,18.40
2009,08,05,12,08,18.40
2009,08,05,12,09,18.40
2009,08,05,12,10,18.50
2009,08,05,12,11,18.50
2009,08,05,12,12,18.60
2009,08,05,12,13,18.60
2009,08,05,12,14,18.70
2009,08,05,12,15,18.80
2009,08,05,12,16,18.80
2009,08,05,12,17,18.80
2009,08,05,12,18,18.80
2009,08,05,12,19,18.70
2009,08,05,12,20,18.60
2009,08,05,12,21,18.60
2009,08,05,12,22,18.60
2009,08,05,12,23,18.80
2009,08,05,12,24,18.80
2009,08,05,12,25,18.80
2009,08,05,12,26,18.80
2009,08,05,12,27,18.80
2009,08,05,12,28,18.80
2009,08,05,12,29,18.90
2009,08,05,12,30,19.00
2009,08,05,12,31,19.10
2009,08,05,12,32,19.20
2009,08,05,12,33,19.10
2009,08,05,12,34,19.10
2009,08,05,12,35,19.10
2009,08,05,12,36,19.10
2009,08,05,12,37,19.10
2009,08,05,12,38,19.30
2009,08,05,12,39,19.40
2009,08,05,12,40,19.30
2009,08,05,12,41,19.30
2009,08,05,12,42,19.20
2009,08,05,12,43,19.10
2009,08,05,12,44,19.10
2009,08,05,12,45,19.10
2009,08,05,12,46,19.10
2009,08,05,12,47,19.00
2009,08,05,12,48,19.00
2009,08,05,12,49,19.00
2009,08,05,12,50,19.10
2009,08,05,12,51,19.10
2009,08,05,12,52,19.00
2009,08,05,12,53,19.00
2009,08,05,12,54,19.20
2009,08,05,12,55,19.20
2009,08,05,12,56,19.20
2009,08,05,12,57,19.10
2009,08,05,12,58,19.10
2009,08,05,12,59,19.10
2009,08,05,13,00,19.00
2009,08,05,13,01,18.90
2009,08,05,13,02,19.00
2009,08,05,13,03,19.10
2009,08,05,13,04,19.10
2009,08,05,13,05,19.20
2009,08,05,13,06,19.10
2009,08,05,13,07,19.10
2009,08,05,13,08,19.20
2009,08,05,13,09,19.20
2009,08,05,13,10,19.20
2009,08,05,13,11,19.30
2009,08,05,13,12,19.20
2009,08,05,13,13,19.20
2009,08,05,13,14,19.10
2009,08,05,13,15,19.20
2009,08,05,13,16,19.20
2009,08,05,13,17,19.30
2009,08,05,13,18,19.30
2009,08,05,13,19,19.40
2009,08,05,13,20,19.40
2009,08,05,13,21,19.40
2009,08,05,13,22,19.50
2009,08,05,13,23,19.60
2009,08,05,13,24,19.70
2009,08,05,13,25,19.70
2009,08,05,13,26,19.80
2009,08,05,13,27,19.70
2009,08,05,13,28,19.50
2009,08,05,13,29,19.40
2009,08,05,13,30,19.50
2009,08,05,13,31,19.60
2009,08,05,13,32,19.50
2009,08,05,13,33,19.40
2009,08,05,13,34,19.30
2009,08,05,13,35,19.30
2009,08,05,13,36,19.30
2009,08,05,13,37,19.30
2009,08,05,13,38,19.30
2009,08,05,13,39,19.30
2009,08,05,13,40,19.40
2009,08,05,13,41,19.50
2009,08,05,13,42,19.40
2009,08,05,13,43,19.40
2009,08,05,13,44,19.30
2009,08,05,13,45,19.40
2009,08,05,13,46,19.30
2009,08,05,13,47,19.20
2009,08,05,13,48,19.20
2009,08,05,13,49,19.10
2009,08,05,13,50,19.10
2009,08,05,13,51,19.10
2009,08,05,13,52,19.20
2009,08,05,13,53,19.20
2009,08,05,13,54,19.30
2009,08,05,13,55,19.40
2009,08,05,13,56,19.40
2009,08,05,13,57,19.30
2009,08,05,13,58,19.20
2009,08,05,13,59,19.20
2009,08,05,14,00,19.30
2009,08,05,14,01,19.30
2009,08,05,14,02,19.40
2009,08,05,14,03,19.50
2009,08,05,14,04,19.50
2009,08,05,14,05,19.60
2009,08,05,14,06,19.60
2009,08,05,14,07,19.70
2009,08,05,14,08,19.80
2009,08,05,14,09,19.90
2009,08,05,14,10,19.90
2009,08,05,14,11,19.80
2009,08,05,14,12,19.80
2009,08,05,14,13,19.80
2009,08,05,14,14,19.60
2009,08,05,14,15,19.70
2009,08,05,14,16,19.80
2009,08,05,14,17,19.80
2009,08,05,14,18,19.70
2009,08,05,14,19,19.60
2009,08,05,14,20,19.50
2009,08,05,14,21,19.40
2009,08,05,14,22,19.40
2009,08,05,14,23,19.40
2009,08,05,14,24,19.40
2009,08,05,14,25,19.40
2009,08,05,14,26,19.40
2009,08,05,14,27,19.50
2009,08,05,14,28,19.60
2009,08,05,14,29,19.60
2009,08,05,14,30,19.70
2009,08,05,14,31,19.70
2009,08,05,14,32,19.70
2009,08,05,14,33,19.70
2009,08,05,14,34,19.70
2009,08,05,14,35,19.90
2009,08,05,14,36,20.00
2009,08,05,14,37,19.90
2009,08,05,14,38,19.80
2009,08,05,14,39,19.90
2009,08,05,14,40,20.00
2009,08,05,14,41,20.00
2009,08,05,14,42,20.00
2009,08,05,14,43,20.00
2009,08,05,14,44,20.00
2009,08,05,14,45,20.10
2009,08,05,14,46,20.10
2009,08,05,14,47,20.00
2009,08,05,14,48,19.90
2009,08,05,14,49,19.90
2009,08,05,14,50,19.80
2009,08,05,14,51,19.70
2009,08,05,14,52,19.70
2009,08,05,14,53,19.80
2009,08,05,14,54,20.00
2009,08,05,14,55,20.00
2009,08,05,14,56,19.90
2009,08,05,14,57,19.90
2009,08,05,14,58,20.00
2009,08,05,14,59,20.10
2009,08,05,15,00,20.00
2009,08,05,15,01,19.90
2009,08,05,15,02,19.90
2009,08,05,15,03,19.80
2009,08,05,15,04,19.80
2009,08,05,15,05,19.90
2009,08,05,15,06,20.00
2009,08,05,15,07,20.00
2009,08,05,15,08,19.90
2009,08,05,15,09,19.90
2009,08,05,15,10,19.90
2009,08,05,15,11,19.90
2009,08,05,15,12,19.80
2009,08,05,15,13,19.70
2009,08,05,15,14,19.80
2009,08,05,15,15,19.80
2009,08,05,15,16,19.80
2009,08,05,15,17,19.80
2009,08,05,15,18,19.80
2009,08,05,15,19,19.90
2009,08,05,15,20,20.00
2009,08,05,15,21,20.00
2009,08,05,15,22,20.10
2009,08,05,15,23,20.20
2009,08,05,15,24,20.20
2009,08,05,15,25,20.20
2009,08,05,15,26,20.20
2009,08,05,15,27,20.10
2009,08,05,15,28,20.20
2009,08,05,15,29,20.30
2009,08,05,15,30,20.20
2009,08,05,15,31,20.20
2009,08,05,15,32,20.00
2009,08,05,15,33,19.90
2009,08,05,15,34,19.80
2009,08,05,15,35,19.80
2009,08,05,15,36,19.80
2009,08,05,15,37,19.80
2009,08,05,15,38,19.80
2009,08,05,15,39,19.80
2009,08,05,15,40,19.90
2009,08,05,15,41,20.00
2009,08,05,15,42,20.10
2009,08,05,15,43,20.20
2009,08,05,15,44,20.10
2009,08,05,15,45,20.00
2009,08,05,15,46,19.90
2009,08,05,15,47,20.00
2009,08,05,15,48,19.90
2009,08,05,15,49,19.90
2009,08,05,15,50,19.90
2009,08,05,15,51,19.90
2009,08,05,15,52,19.90
2009,08,05,15,53,20.00
2009,08,05,15,54,20.00
2009,08,05,15,55,20.00
2009,08,05,15,56,19.90
2009,08,05,15,57,19.90
2009,08,05,15,58,19.90
2009,08,05,15,59,19.90
2009,08,05,16,00,19.90
2009,08,05,16,01,20.10
2009,08,05,16,02,20.10
2009,08,05,16,03,20.20
2009,08,05,16,04,20.30
2009,08,05,16,05,20.30
2009,08,05,16,06,20.20
2009,08,05,16,07,20.20
2009,08,05,16,08,20.20
2009,08,05,16,09,20.20
2009,08,05,16,10,20.20
2009,08,05,16,11,20.10
2009,08,05,16,12,20.10
2009,08,05,16,13,20.10
2009,08,05,16,14,20.10
2009,08,05,16,15,20.20
2009,08,05,16,16,20.20
2009,08,05,16,17,20.20
2009,08,05,16,18,20.20
2009,08,05,16,19,20.20
2009,08,05,16,20,20.30
2009,08,05,16,21,20.40
2009,08,05,16,22,20.50
2009,08,05,16,23,20.50
2009,08,05,16,24,20.40
2009,08,05,16,25,20.30
2009,08,05,16,26,20.20
2009,08,05,16,27,20.20
2009,08,05,16,28,20.30
2009,08,05,16,29,20.40
2009,08,05,16,30,20.40
2009,08,05,16,31,20.50
2009,08,05,16,32,20.60
2009,08,05,16,33,20.60
2009,08,05,16,34,20.60
2009,08,05,16,35,20.40
2009,08,05,16,36,20.20
2009,08,05,16,37,20.00
2009,08,05,16,38,19.90
2009,08,05,16,39,19.80
2009,08,05,16,40,19.80
2009,08,05,16,41,19.80
2009,08,05,16,42,19.80
2009,08,05,16,43,19.90
2009,08,05,16,44,19.90
2009,08,05,16,45,20.00
2009,08,05,16,46,20.10
2009,08,05,16,47,20.20
2009,08,05,16,48,20.10
2009,08,05,16,49,20.00
2009,08,05,16,50,20.00
2009,08,05,16,51,20.00
2009,08,05,16,52,20.00
2009,08,05,16,53,20.10
2009,08,05,16,54,20.20
2009,08,05,16,55,20.20
2009,08,05,16,56,20.20
2009,08,05,16,57,20.10
2009,08,05,16,58,20.10
2009,08,05,16,59,20.10
2009,08,05,17,00,20.00
2009,08,05,17,01,19.90
2009,08,05,17,02,19.80
2009,08,05,17,03,19.80
2009,08,05,17,04,19.70
2009,08,05,17,05,19.70
2009,08,05,17,06,19.60
2009,08,05,17,07,19.60
2009,08,05,17,08,19.70
2009,08,05,17,09,19.70
2009,08,05,17,10,19.60
2009,08,05,17,11,19.70
2009,08,05,17,12,19.70
2009,08,05,17,13,19.70
2009,08,05,17,14,19.70
2009,08,05,17,15,19.80
2009,08,05,17,16,19.90
2009,08,05,17,17,20.00
2009,08,05,17,18,20.00
2009,08,05,17,19,19.90